Location: Camps Bay
(33.9517°S, 18.3844°E)
Time: 12:53:33
(UTC+00:00)

Cosmos 1707 - Pass Details

Date: 18 January 2020
Orbit: 516 x 531 km, 82.5° (Epoch: 20 February)

Event Time Altitude Azimuth Distance (km) Brightness Sun altitude
Rises 02:51:20 0° 7° (N) 2,640 6.0 -11.9°
Reaches altitude 10° 02:53:30 10° 12° (NNE) 1,758 5.2 -11.5°
Maximum altitude 02:57:14 48° 87° (E) 697 3.7 -10.9°
Drops below altitude 10° 03:00:59 10° 161° (SSE) 1,778 6.3 -10.3°
Sets 03:03:11 0° 166° (SSE) 2,673 7.1 -9.9°
